Cienfuegos, Cuba

12:56 AM CST on December 10, 2019 (GMT -0500)
Jaime Gonzalez

Weather History for MUCF - October, 2019

Change the Weather History Date:

Saturday, October 5, 2019

  Actual Average Record
Temperature  
Mean Temperature 79 °F -  
Max Temperature 87 °F - - ()
Min Temperature 71 °F - - ()
Cooling Degree Days 14    
Growing Degree Days 29 (Base 50)    
Moisture  
Dew Point 75 °F    
Average Humidity 93    
Maximum Humidity 100    
Minimum Humidity 66    
Precipitation  
Precipitation 0.00 in - - ()
Sea Level Pressure  
Sea Level Pressure 29.88 in    
Wind  
Wind Speed 3 mph ()    
Max Wind Speed 9 mph    
Max Gust Speed -    
Visibility 6.1 miles    
Events      
T = Trace of Precipitation, MM = Missing Value Source: Averaged Metar Reports

Daily Weather History Graph

Daily Weather History Graph

Search for Another Location

Airport or City:

Astronomy

Oct. 05, 2019 Rise Set
Actual Time 7:14 AM CDT 7:05 PM CDT
Civil Twilight 6:51 AM CDT 7:27 PM CDT
Nautical Twilight 6:25 AM CDT 7:53 PM CDT
Astronomical Twilight 5:59 AM CDT 8:19 PM CDT
Moon 2:00 PM CDT (10/5) 12:11 AM CDT (10/5)
Length of Visible Light 12h 36m
Length of Day
11h 51m
Waxing Crescent, 50% of the Moon is Illuminated
Oct 5
Waxing Crescent
Oct 5
First Quarter
Oct 13
Full
Oct 21
Last Quarter
Oct 27
New

Hourly Weather History & Observations

Time (CDT) Temp. Heat Index Dew Point Humidity Pressure Visibility Wind Dir Wind Speed Gust Speed Precip Events Conditions
12:58 AM 73.4 °F - 73.4 °F 100% 29.92 in - East 2.3 mph - N/A   Unknown
1:59 AM 73.4 °F - 73.4 °F 100% 29.89 in - Variable 1.2 mph - N/A   Unknown
2:59 AM 73.4 °F - 73.4 °F 100% 29.89 in - ESE 3.5 mph - N/A   Unknown
3:58 AM 73.4 °F - 73.4 °F 100% 29.89 in - ENE 3.5 mph - N/A   Unknown
4:59 AM 73.4 °F - 73.4 °F 100% 29.89 in - East 2.3 mph - N/A   Unknown
5:59 AM 71.6 °F - 71.6 °F 100% 29.89 in - East 3.5 mph - N/A   Unknown
6:59 AM 71.6 °F - 71.6 °F 100% 29.89 in - East 3.5 mph - N/A   Unknown
7:59 AM 73.4 °F - 73.4 °F 100% 29.92 in - Variable 2.3 mph - N/A   Unknown
8:50 AM 77.0 °F - 77.0 °F 100% 29.92 in 6.2 mi ENE 3.5 mph - N/A   Mostly Cloudy
9:51 AM 80.6 °F 87.1 °F 77.0 °F 89% 29.92 in 6.2 mi ENE 5.8 mph - N/A   Scattered Clouds
10:51 AM 84.2 °F 94.1 °F 77.0 °F 79% 29.95 in 6.2 mi ENE 4.6 mph - N/A   Mostly Cloudy
11:50 AM 84.2 °F 94.1 °F 77.0 °F 79% 29.92 in 6.2 mi NE 4.6 mph - N/A   Mostly Cloudy
12:51 PM 86.0 °F 96.9 °F 77.0 °F 74% 29.89 in 6.2 mi Variable 3.5 mph - N/A   Mostly Cloudy
1:50 PM 87.8 °F 97.6 °F 75.2 °F 66% 29.86 in 6.2 mi ENE 3.5 mph - N/A   Mostly Cloudy
2:51 PM 84.2 °F 94.1 °F 77.0 °F 79% 29.83 in 6.2 mi SW 9.2 mph - N/A   Mostly Cloudy
3:51 PM 84.2 °F 96.1 °F 78.8 °F 84% - 5.6 mi SW 5.8 mph - N/A   Mostly Cloudy
4:59 PM 80.6 °F 88.1 °F 78.8 °F 94% 29.83 in - South 4.6 mph - N/A   Unknown
5:58 PM 77.0 °F - 77.0 °F 100% 29.83 in - South 3.5 mph - N/A   Unknown
6:59 PM 77.0 °F - 75.2 °F 94% 29.86 in - SE 3.5 mph - N/A   Unknown
7:58 PM 75.2 °F - 75.2 °F 100% 29.86 in - Variable 1.2 mph - N/A   Unknown
8:59 PM 75.2 °F - 73.4 °F 94% 29.86 in - ENE 3.5 mph - N/A   Unknown
9:59 PM 75.2 °F - 75.2 °F 100% 29.89 in - NE 5.8 mph - N/A   Unknown
10:59 PM 75.2 °F - 75.2 °F 100% 29.89 in - ENE 4.6 mph - N/A   Unknown
11:59 PM 75.2 °F - 75.2 °F 100% 29.86 in - East 3.5 mph - N/A   Unknown